Location: ????????
(55.0559°N, 39.1270°E)
Time: 05:12:56
(UTC+00:00)

Daily predictions for brighter satellites

Satellite Brightness Start Highest point End
(mag) Time Altitude Azimuth Time Altitude Azimuth Time Altitude Azimuth
Cosmos 2237 Rocket 4.4 00:13:50 18° ESE 00:14:18 18° E 00:18:02 10° ENE
Cosmos 2369 Rocket 4.1 00:17:55 24° NE 00:17:55 24° NE 00:22:06 10° E
ADEOS Rocket 4.0 00:15:33 10° NNE 00:21:57 51° E 00:21:57 51° E
ADEOS II 4.4 00:17:45 10° NNE 00:19:01 18° NNE 00:19:01 18° NNE
Cosmos 2360 Rocket 4.1 00:29:09 23° NNE 00:29:09 23° NNE 00:31:18 10° NNE
Cosmos 2322 Rocket 4.1 00:34:12 24° NNE 00:34:12 24° NNE 00:36:27 10° NNE
Cosmos 2333 Rocket 4.1 00:35:28 24° NNE 00:35:28 24° NNE 00:37:51 10° NNE
SJ 16-02 4.2 00:38:25 12° E 00:38:25 12° E 00:38:55 10° ESE
USA 234 3.8 00:30:21 10° ESE 00:35:06 52° ESE 00:35:06 52° ESE
CZ-2D R/B 4.3 00:35:38 10° NNE 00:36:47 17° NNE 00:36:47 17° NNE
ACS3 Solar Sail 2.6 00:35:37 10° NNE 00:39:55 45° NE 00:39:55 45° NE
SL-16 R/B 4.1 00:44:51 22° N 00:44:51 22° N 00:47:06 10° NNE
COSMOS 2455 4.1 00:46:06 34° NNE 00:46:06 34° NNE 00:49:40 10° NE
Resurs 1-4 Rocket 4.3 00:48:00 10° N 00:49:16 17° N 00:49:16 17° N
Cosmos 1725 Rocket 4.4 00:52:31 10° N 00:58:49 61° ENE 01:05:03 10° SSE
Cosmos 2219 Rocket 3.5 01:03:00 33° NNE 01:03:00 33° NNE 01:06:13 10° NNE
NOSS 3-1 (C) 3.9 01:03:05 50° ENE 01:03:05 50° ENE 01:07:43 10° NE
Cosmos 1727 Rocket 4.3 01:07:36 58° NNE 01:07:36 58° NNE 01:12:33 10° NNE
Lacrosse 4 Rocket 4.0 01:11:04 15° NE 01:11:04 15° NE 01:12:42 10° ENE
NOSS 3-2 (C) 4.3 01:11:41 41° N 01:12:23 42° N 01:19:33 10° ENE
Lacrosse 5 rocket 4.1 01:16:10 13° E 01:16:10 13° E 01:16:39 10° E
H-2A R/B 3.6 01:14:39 10° NNE 01:16:39 25° N 01:16:39 25° N
Cosmos 1802 Rocket 4.1 01:13:48 10° N 01:21:19 63° SSE 01:26:29 10° S
NOSS 0 Rocket 4.1 01:20:16 62° SSE 01:20:54 66° ESE 01:27:01 10° NE
Cosmos 1000 Rocket 4.4 01:28:39 84° SW 01:28:51 86° W 01:35:15 10° N
NOSS 3-2 (A) 4.3 01:31:49 41° NNW 01:33:56 54° NNE 01:41:50 10° E
COSMOS 2428 2.7 01:39:07 67° NNW 01:39:07 67° NNW 01:44:16 10° NNE
Meteor 2-5 Rocket 3.8 01:37:02 42° S 01:39:07 77° E 01:44:54 10° NNE
Cosmos 1980 Rocket 4.2 01:38:37 16° NNW 01:39:10 16° N 01:42:38 10° NNE
Cosmos 2322 3.9 01:40:26 58° NNW 01:40:26 58° NNW 01:45:21 10° NNE
USA 267 4.2 01:34:21 10° ENE 01:40:29 41° SE 01:44:05 23° SSW
CZ-2C R/B 2.7 01:36:03 10° NNE 01:41:07 71° ESE 01:42:21 51° SSE
Cosmos 1980 3.9 01:40:45 52° S 01:42:02 69° ESE 01:47:42 10° NE
Cosmos 2123 Rocket 3.9 01:39:50 32° S 01:42:53 87° E 01:49:07 10° NNE
Cosmos 2016 Rocket 3.9 01:37:34 10° NNW 01:43:59 79° W 01:50:19 10° S
Cosmos 1939 Rocket 3.8 01:46:58 10° NNE 01:50:41 45° E 01:51:20 40° SE
NOSS 3-1 (A) 3.1 01:50:03 64° S 01:50:45 74° SE 01:56:51 10° NE
Meteor 2-21 4.3 01:50:58 66° W 01:51:04 66° WNW 01:57:06 10° N
Cosmos 2084 4.3 01:52:25 40° NNE 01:52:25 40° NNE 01:56:02 10° E
Cosmos 1190 Rocket 4.2 01:54:10 54° SSW 01:54:10 54° SSW 01:58:20 10° SSE
Cosmos 676 Rocket 3.9 01:54:26 58° NNW 01:55:30 86° ENE 02:00:43 10° SSE
Cosmos 2297 4.0 01:54:05 32° NNW 01:56:43 64° NE 02:02:19 10° SE
CENTAUR R/B 3.2 01:52:52 36° NW 01:56:46 85° NE 02:06:02 10° SE
Cosmos 2237 Rocket 2.2 01:55:42 45° SSW 01:57:32 81° ESE 02:03:12 10° NE
ARGOS 3.0 01:52:07 10° NNE 01:57:35 80° WNW 01:58:54 53° SSW
ADEOS II 3.7 01:57:48 10° N 01:59:50 20° NNW 01:59:50 20° NNW
Cosmos 2369 Rocket 2.4 01:59:43 31° NNW 02:02:29 70° NE 02:08:10 10° SE
USA 238 DEB 4.4 02:03:31 33° NW 02:05:51 43° N 02:12:54 10° ENE
USA 238 4.4 02:03:37 33° NW 02:05:57 43° N 02:13:01 10° ENE
Cosmos 1954 Rocket 3.9 02:07:31 64° WSW 02:07:31 64° WSW 02:12:36 10° SSE
ADEOS Rocket 3.5 02:01:17 10° N 02:07:37 48° WNW 02:08:51 44° W
Cosmos 2056 Rocket 4.4 02:03:42 10° S 02:08:54 50° ESE 02:14:05 10° NE
Cosmos 2360 Rocket 3.6 02:10:54 23° NNW 02:10:54 23° NNW 02:15:14 10° NNE
Meteor 2-16 Rocket 4.3 02:05:47 11° SSW 02:11:36 74° WNW 02:17:47 10° N
SJ 16-02 1.9 02:15:02 42° SSW 02:15:02 42° SSW 02:18:02 10° S
Cosmos 2322 Rocket 3.7 02:15:59 21° NNW 02:16:10 21° NNW 02:20:30 10° NNE
IRS-1D 4.3 02:11:27 10° NNE 02:16:18 51° E 02:21:05 10° S
SKYMED 2 3.6 02:13:30 10° SSE 02:17:51 81° ENE 02:21:03 18° NNW
Cosmos 2333 Rocket 3.7 02:17:29 20° NNW 02:17:58 21° NNW 02:22:15 10° NNE
CZ-2D R/B 4.0 02:16:34 10° N 02:18:02 15° NNW 02:18:02 15° NNW
USA 234 3.5 02:14:00 10° SE 02:20:21 50° SW 02:22:27 38° W
NOSS 2-2 (E) 3.9 02:23:27 40° N 02:24:06 44° NNE 02:28:13 10° ESE
ACS3 Solar Sail 2.4 02:18:57 10° N 02:24:02 34° NW 02:24:02 34° NW
SeaSat 1 4.2 02:21:15 10° NNE 02:24:16 18° NNW 02:24:16 18° NNW
COSMO-SKYMED 1 2.6 02:20:46 10° SSE 02:24:51 70° ENE 02:28:38 12° N
USA 59 Rocket 1.0 02:28:26 22° NNE 02:28:26 22° NNE 02:29:56 10° NE
SL-16 R/B 3.9 02:26:41 17° NNW 02:27:44 18° NNW 02:31:29 10° NNE
Cosmos 1371 Rocket 4.4 02:23:01 10° SSW 02:28:16 66° ESE 02:33:35 10° NNE
Cosmos 968 Rocket 3.5 02:25:09 21° NNW 02:28:46 84° ENE 02:34:01 10° SSE
COSMOS 2455 4.0 02:29:13 25° NW 02:30:56 28° NNW 02:36:06 10° NE
Cosmos 1741 Rocket 4.3 02:26:44 16° NNW 02:31:03 70° ENE 02:36:21 10° SE
Resurs 1-4 Rocket 4.1 02:29:02 10° N 02:30:19 13° NNW 02:30:19 13° NNW
Cosmos 371 Rocket 3.5 02:32:58 45° W 02:33:30 47° WSW 02:38:07 10° S
Cosmos 2061 Rocket 4.0 02:29:32 10° NNW 02:35:32 53° W 02:41:31 10° SSW
Cosmos 1891 Rocket 4.4 02:29:41 10° NNW 02:36:07 87° W 02:42:22 10° S
CZ-4 R/B 4.1 02:33:27 10° NNE 02:38:20 69° ESE 02:43:05 10° S
Aureole 3 Rocket 3.6 02:35:14 10° NNW 02:39:58 75° W 02:46:38 10° S
Cosmos 2292 Rocket 4.4 02:35:23 13° SSW 02:40:01 55° WNW 02:46:37 10° N
Cosmos 1656 Rocket 4.0 02:38:46 34° WNW 02:40:34 44° WSW 02:45:55 10° S
NOAA 12 4.4 02:35:56 10° NNE 02:41:16 69° ESE 02:46:34 10° S
Cosmos 304 Rocket 4.1 02:41:42 39° W 02:42:03 39° WSW 02:46:28 10° S
Gbstr 26 Del rocket 3.8 02:39:58 34° WSW 02:42:07 63° S 02:48:10 10° ESE
Meteor 1-24 Rocket 4.1 02:41:06 34° W 02:42:26 39° WNW 02:47:31 10° N
Cosmos 2219 Rocket 3.5 02:44:42 21° NW 02:45:44 22° NNW 02:50:08 10° NNE
Cosmos 2233 Rocket 4.3 02:40:32 10° NNW 02:46:24 42° W 02:52:12 10° SSW
Cosmos 1400 Rocket 2.5 02:44:17 18° NNW 02:47:01 89° E 02:50:41 10° SSE
Lacrosse 4 Rocket 2.2 02:46:35 21° NNW 02:48:56 43° NE 02:52:43 10° ESE
Cosmos 2151 Rocket 3.6 02:44:57 10° N 02:49:29 85° ENE 02:53:57 10° SSE
Cosmos 1484 Rocket 4.3 02:46:54 10° NNE 02:50:13 35° E 02:53:29 10° SSE
Lacrosse 5 rocket 0.7 02:49:50 54° W 02:50:25 70° SSW 02:53:43 10° ESE
In-Cosmos 22 Rocket 4.3 02:45:23 10° S 02:51:13 85° ESE 02:57:01 10° NNE
USA 306 3.3 02:50:32 27° SSW 02:51:56 42° SSE 02:55:36 10° E
NOSS 3-1 (C) 3.8 02:50:25 29° WNW 02:52:48 46° NNW 02:59:13 10° NE
NOSS 2-2 (C) 3.3 02:53:25 37° WNW 02:54:48 72° SW 02:59:34 10° SE
Cosmos 1447 Rocket 4.4 02:50:10 10° SSW 02:56:26 73° WNW 03:02:49 10° N
Sich 1 Rocket 3.9 02:51:58 10° N 02:56:32 69° ENE 03:01:01 10° SSE
H-2A R/B 3.6 02:55:01 10° N 02:57:08 16° NW 02:57:08 16° NW
Cosmos 1464 Rocket 3.9 02:52:13 10° NNW 02:58:26 89° E 03:04:34 10° S
H-2A R/B 4.0 02:55:43 10° N 02:58:58 32° WNW 02:58:58 32° WNW
SL-16 R/B 2.4 02:55:08 10° SSW 03:00:48 76° ESE 03:06:31 10° NE
SWARM C 4.4 02:58:22 10° S 03:01:41 79° W 03:05:02 10° N
SWARM A 4.1 02:58:28 10° S 03:01:48 88° E 03:05:08 10° N
Cosmos 1624 Rocket 3.9 02:56:56 10° SSW 03:02:06 76° WNW 03:07:19 10° NNE
Cosmos 1420 Rocket 4.2 02:57:42 14° SW 03:02:08 52° NW 03:07:21 10° NNE
Cosmos 332 Rocket 3.7 02:58:13 14° NNW 03:02:18 78° WSW 03:07:04 10° SSE
NOSS 3-2 (C) 4.1 02:59:05 18° NW 03:04:19 67° NNE 03:12:34 10° ESE
SL-08 RB Rocket 4.4 03:00:40 10° N 03:04:40 31° WNW 03:06:14 24° W
Helios 1A Rocket 3.0 03:01:55 10° SSW 03:05:03 35° W 03:05:20 34° W
Cosmos 1378 Rocket 3.4 03:00:50 10° S 03:05:06 89° ESE 03:09:26 10° NNE
Cosmos 2242 Rocket 3.5 03:02:26 10° SSW 03:06:47 61° WNW 03:11:13 10° N
Okean 1 Rocket 3.0 03:03:14 10° N 03:07:35 84° ENE 03:11:54 10° SSE
NOSS 0 Rocket 4.4 03:04:17 22° W 03:07:44 40° NW 03:13:32 10° NNE
Cosmos 2346 Rocket 4.4 03:03:06 10° SSW 03:09:07 59° WNW 03:15:09 10° N
Cosmos 2034 Rocket 4.2 03:03:25 10° N 03:09:48 77° ENE 03:16:11 10° SSE
Cosmos 1812 3.9 03:14:35 16° SW 03:14:35 16° SW 03:15:31 10° SSW
Meteor 2-1 Rocket 4.4 03:07:22 10° NNW 03:13:22 87° ENE 03:19:11 10° SSE
NOSS 2-1 (E) 4.1 03:16:17 21° NW 03:16:53 23° NNW 03:19:25 10° NE
NOSS 2-2 (D) 3.2 03:14:49 24° NW 03:16:58 80° SW 03:21:40 10° SE
Cosmos 1452 Rocket 4.4 03:12:52 10° S 03:17:56 53° ESE 03:23:02 10° NE
CZ-2C R/B 3.5 03:14:40 10° N 03:18:47 26° WNW 03:21:33 16° W
Cosmos 1850 Rocket 4.1 03:14:12 12° NW 03:18:57 54° WSW 03:23:58 10° S
PKM 4.2 03:19:13 19° WNW 03:22:59 60° SSW 03:25:50 10° SE
COSMOS 2428 3.9 03:21:07 18° WNW 03:23:46 25° NNW 03:28:28 10° NNE
USA 267 3.3 03:17:27 10° ENE 03:24:03 83° SSE 03:30:37 10° WSW
Cosmos 1939 Rocket 3.8 03:21:19 10° N 03:24:27 24° WNW 03:26:12 17° W
NOSS 3-2 (A) 4.0 03:19:10 15° NW 03:25:14 74° SW 03:33:46 10° SE
Cosmos 1980 Rocket 4.0 03:21:09 10° NNW 03:25:23 21° NNE 03:29:34 10° ENE
Cosmos 1980 4.4 03:22:38 16° W 03:26:33 35° NW 03:31:45 10° NNE
USA 229 DEB 3.9 03:20:45 10° SSW 03:26:44 68° SE 03:33:34 10° NE
USA 229 3.9 03:20:58 10° SSW 03:26:57 68° SE 03:33:46 10° NE
IGS 5A 3.9 03:24:02 10° NNE 03:28:03 64° E 03:32:02 10° S
Cosmos 2084 3.4 03:28:09 18° WNW 03:31:01 58° SW 03:34:57 10° SE
Cosmos 1331 Rocket 4.1 03:27:05 10° SSW 03:32:20 81° ESE 03:37:35 10° NNE
Meteor 1-11 4.3 03:29:07 10° SSW 03:34:59 86° WNW 03:40:52 10° NNE
ARGOS 4.4 03:33:14 10° N 03:37:05 20° NW 03:40:21 12° W
Cosmos 1356 Rocket 4.3 03:33:21 10° N 03:37:20 49° ENE 03:41:18 10° SSE
Cosmos 2297 4.5 03:36:01 12° NW 03:40:33 31° WSW 03:45:26 10° SSW
CZ-2D R/B 4.4 03:37:40 10° NNE 03:40:40 38° E 03:43:39 10° S
CBERS-1 4.2 03:35:52 10° NNE 03:41:02 82° ESE 03:46:09 10° SSW
NOSS 3-1 (A) 3.7 03:37:27 14° W 03:41:57 46° NNW 03:48:25 10° NE
Cosmos 2237 Rocket 3.0 03:37:34 12° W 03:42:11 31° NW 03:47:12 10° NNE
SMAP 3.9 03:37:39 10° NNE 03:42:15 55° E 03:46:50 10° S
Cosmos 1441 Rocket 3.9 03:40:13 10° S 03:43:27 49° E 03:46:42 10° NNE
Okean 2 Rocket 3.5 03:40:52 10° NNW 03:44:56 39° W 03:49:00 10° SSW
Cosmos 2369 Rocket 3.1 03:41:31 11° NW 03:46:04 29° WSW 03:50:52 10° SSW
CENTAUR R/B 3.8 03:40:00 11° NW 03:47:14 41° WSW 03:55:44 10° S
ATLAS 3B R/B 3.1 03:40:39 10° SW 03:48:20 87° SE 03:56:18 10° NE
NOSS 2-1 (D) 4.5 03:49:19 12° NW 03:51:06 18° N 03:53:22 10° NE
Cosmos 2056 Rocket 4.1 03:46:06 10° WSW 03:51:08 39° NW 03:56:10 10° NNE
Cosmos 1943 3.5 03:46:13 10° SSW 03:51:47 72° ESE 03:57:24 10° NE
NOSS 2-1 (C) 4.5 03:52:10 12° NW 03:54:03 18° N 03:56:19 10° NE
IRS-1D 4.1 03:50:54 10° N 03:55:17 32° WNW 03:59:37 10° WSW
Orbus 7S? 2.7 03:51:47 10° WSW 03:55:41 77° NNW 03:58:19 10° ENE
Cosmos 2360 Rocket 4.1 03:53:28 10° NW 03:56:54 16° N 04:00:19 10° NE
USA 238 DEB 4.3 03:51:02 10° NW 03:57:59 60° NNE 04:05:41 10° ESE
USA 238 4.3 03:51:09 10° NW 03:58:06 60° NNE 04:05:47 10° ESE
Cosmos 1315 Rocket 2.9 03:54:29 10° NNW 03:58:21 78° ENE 04:02:12 10° SSE
COSMO-SKYMED 1 4.0 03:57:54 10° SW 04:00:39 17° W 04:03:25 10° NW
Iridium 45 4.4 03:57:55 10° NNW 04:01:02 51° W 04:04:08 10° SSW
Cosmos 2228 3.2 03:57:13 10° N 04:01:30 76° ENE 04:05:45 10° SSE
Cosmos 292 Rocket 4.1 03:57:35 10° NW 04:02:14 49° WSW 04:06:49 10° S
Cosmos 2322 Rocket 4.1 03:58:54 10° NW 04:02:25 16° N 04:05:56 10° NE
NOSS 2-3 (C) 4.4 03:58:48 10° NW 04:03:17 59° NNE 04:09:22 10° ESE
Cosmos 2333 Rocket 4.1 04:00:44 10° NNW 04:04:31 17° N 04:08:17 10° NE
Cosmos 1544 Rocket 4.4 04:00:23 10° N 04:04:42 53° ENE 04:09:02 10° SSE
ACS3 Solar Sail 3.5 04:04:46 10° NNW 04:05:37 10° NW 04:06:28 10° NW
Cosmos 1025 Rocket 3.4 04:06:05 10° SW 04:10:15 43° WNW 04:14:27 10° N
NOSS 2-3 (E) 4.3 04:06:12 10° NW 04:10:50 70° NE 04:17:02 10° ESE
Cosmos 1461 3.9 04:07:48 10° NW 04:11:29 34° NNE 04:15:06 10° E
NOSS 2-2 (E) 4.2 04:10:03 10° WNW 04:13:32 39° SW 04:18:07 10° SSE
MOS 1 Rocket 4.2 04:09:16 10° NNE 04:14:06 59° E 04:19:10 10° S
SL-16 R/B 4.1 04:10:18 10° NNW 04:14:06 18° NNE 04:17:56 10° ENE
Cosmos 1674 Rocket 4.3 04:11:15 10° SW 04:15:12 31° WNW 04:19:12 10° N
